This demonstration page uses our WeatherBlox Daily Observations layout. Learn more.

38.80484, -77.04692

Hourly Observations for May 25, 2019

Temp ( °F °C ) Dew Point ( °F °C ) Humidity (%) Winds ( mph kmh ) Pressure ( in mb ) Visibility ( mi km ) Precip ( " mm )
12:52 am 00:52 Partly Cloudy 72 22.2 59 15 64 64 S 3 6 30.09 1019 10 16.09344 0 0
1:52 am 01:52 Mostly Cloudy 70 21.1 55 12.8 59 59 Calm 30.09 1019 10 16.09344 0 0
2:52 am 02:52 Cloudy 70 21.1 57 13.9 64 64 N 6 9 30.09 1019 10 16.09344 0 0
3:52 am 03:52 Cloudy 69 20.6 55 12.8 61 61 ENE 12 19 30.12 1020 10 16.09344 0 0
4:52 am 04:52 Cloudy 68 20 56 13.3 65 65 ESE 7 11 30.15 1021 10 16.09344 0 0
5:52 am 05:52 Cloudy 67 19.4 56 13.3 68 68 SE 6 9 30.15 1021 10 16.09344 0 0
6:52 am 06:52 Mostly Cloudy 67 19.4 56 13.3 68 68 SE 7 11 30.18 1022 10 16.09344 0 0
7:52 am 07:52 Partly Cloudy 67 19.4 55 12.8 66 66 SE 7 11 30.18 1022 10 16.09344 0 0
8:52 am 08:52 Partly Cloudy 69 20.6 55 12.8 61 61 ESE 7 11 30.21 1023 10 16.09344 0 0
9:52 am 09:52 Partly Cloudy 71 21.7 56 13.3 59 59 S 7 11 30.18 1022 10 16.09344 0 0
10:52 am 10:52 Partly Cloudy 73 22.8 56 13.3 55 55 SSW 6 9 30.18 1022 10 16.09344 0 0
11:52 am 11:52 Mostly Cloudy 74 23.3 58 14.4 57 57 S 7 11 30.18 1022 10 16.09344 0 0
12:52 pm 12:52 Mostly Cloudy 78 25.6 59 15 52 52 SSW 10 17 30.15 1021 10 16.09344 0 0
1:52 pm 13:52 Partly Cloudy 80 26.7 61 16.1 52 52 S 12 19 30.12 1020 10 16.09344 0 0
2:52 pm 14:52 Mostly Sunny 81 27.2 62 16.7 53 53 S 13 20 30.09 1019 10 16.09344 0 0
3:52 pm 15:52 Partly Cloudy 81 27.2 64 17.8 57 57 S 13 20 30.06 1018 10 16.09344 0 0
4:52 pm 16:52 Mostly Cloudy 81 27.2 63 17.2 54 54 S 9 15 30.06 1018 10 16.09344 0 0
5:52 pm 17:52 Mostly Cloudy 77 25 64 17.8 64 64 SE 10 17 30.03 1017 10 16.09344 0 0
6:52 pm 18:52 Mostly Cloudy 75 23.9 64 17.8 69 69 SE 10 17 30.06 1018 10 16.09344 0 0
7:52 pm 19:52 Mostly Cloudy 74 23.3 64 17.8 71 71 SE 9 15 30.06 1018 10 16.09344 0 0
8:32 pm 20:32 Mostly Cloudy 73 22.8 64 17.8 74 74 SSE 13 20 30.06 1018 10 16.09344 0.001 0.001
8:52 pm 20:52 Mostly Cloudy 73 22.8 63 17.2 71 71 SSE 13 20 30.03 1017 10 16.09344 0.001 0.001
9:22 pm 21:22 Mostly Cloudy with Nearby Thunderstorms 72 22.2 64 17.8 76 76 S 10 17 30.06 1018 10 16.09344 0 0
9:38 pm 21:38 Mostly Cloudy with Light Rain 72 22.2 64 17.8 76 76 S 10 17 30.06 1018 10 16.09344 0.001 0.001
9:52 pm 21:52 Mostly Cloudy 72 22.2 64 17.8 76 76 S 14 22 30.03 1017 10 16.09344 0.001 0.001
10:37 pm 22:37 Mostly Cloudy with Nearby Thunderstorms 71 21.7 64 17.8 79 79 SSE 10 17 30.06 1018 10 16.09344 0 0
10:48 pm 22:48 Mostly Cloudy 72 22 64 18 78 78 S 8 13 30.06 1018 10 16.09344 0 0
10:52 pm 22:52 Mostly Cloudy 71 21.7 64 17.8 79 79 S 8 13 30.03 1017 10 16.09344 0 0
11:31 pm 23:31 Mostly Cloudy with Thunderstorms 71 21.7 64 17.8 79 79 SW 6 9 30.06 1018 10 16.09344 0 0
11:46 pm 23:46 Cloudy with Light Thunderstorms 72 22 64 18 78 78 VRB 3 6 30.03 1017 6 9.656064 0.001 0.001
11:52 pm 23:52 Cloudy with Light Thunderstorms 72 22.2 64 17.8 76 76 SSE 9 15 30 1016 6 9.656064 0.001 0.001

Powered by AerisWeather